FW9881 Weather Reports


time (UTC)temp
F
wind
direction
speed
knots
gust
knots
rain 1hr
in
rain 24hr
in
rain mn
in
humidity
%
barometer
mb
20260904044025 62 180 0.0 0.0 0.00 0.07 0.00 84 1015.4
20260904043024 63 180 0.9 1.7 0.00 0.07 0.00 84 1015.4
20260904042039 63 180 0.0 0.0 0.00 0.07 0.00 83 1015.4
20260904040028 63 180 0.0 0.0 0.00 0.07 0.00 85 1015.5
20260904035112 63 180 0.0 0.0 0.00 0.07 0.07 85 1015.4
20260904034114 63 180 0.0 0.0 0.00 0.07 0.07 85 1015.6
20260904033111 63 180 0.0 0.0 0.00 0.07 0.07 84 1015.6
20260904032113 64 180 0.0 0.0 0.00 0.07 0.07 85 1015.6
20260904031114 64 180 0.0 0.0 0.00 0.07 0.07 85 1015.5
20260904030111 64 180 0.0 0.0 0.00 0.07 0.07 85 1015.7
20260904025210 64 180 0.0 0.0 0.00 0.07 0.07 84 1015.7
20260904023212 65 225 0.0 0.0 0.00 0.07 0.07 85 1015.4
20260904023113 65 225 0.0 0.0 0.00 0.07 0.07 84 1015.5
20260904022012 66 225 0.0 0.0 0.00 0.07 0.07 85 1015.5
20260904021027 66 225 0.0 0.0 0.00 0.07 0.07 84 1015.8
20260904020112 66 225 0.0 0.0 0.00 0.07 0.07 84 1015.6
20260904015210 67 225 0.0 0.0 0.00 0.07 0.07 84 1015.9
20260904015112 67 225 0.0 0.0 0.00 0.07 0.07 84 1015.9
20260904014111 67 225 0.0 0.0 0.00 0.07 0.07 85 1015.9
20260904014010 67 225 0.0 0.0 0.00 0.07 0.07 85 1015.8
20260904013010 67 225 0.0 0.0 0.00 0.07 0.07 86 1015.9
20260904011011 67 225 0.0 0.0 0.00 0.07 0.07 85 1015.8
20260904010011 67 225 0.0 0.0 0.00 0.07 0.07 87 1015.9
20260904005012 67 225 0.0 0.0 0.00 0.07 0.07 86 1015.7
20260904004910 67 225 0.0 0.0 0.00 0.07 0.07 87 1015.7
20260904003912 67 225 0.0 0.0 0.00 0.07 0.07 87 1015.5
20260904003011 67 225 0.0 0.0 0.00 0.07 0.07 88 1015.5
20260904002012 67 225 0.0 0.0 0.00 0.07 0.07 87 1015.3
20260904001910 67 225 0.0 0.0 0.00 0.07 0.07 87 1015.3
20260904000912 68 225 0.0 0.0 0.00 0.07 0.07 89 1015.1
20260903235911 68 225 0.0 0.0 0.00 0.07 0.07 88 1014.9
20260903234012 69 225 0.0 0.0 0.00 0.07 0.07 85 1014.8
20260903233912 69 225 0.0 0.0 0.00 0.07 0.07 86 1014.8
20260903233012 70 225 0.0 0.0 0.00 0.07 0.07 85 1014.8
20260903232011 71 225 0.0 0.0 0.00 0.07 0.07 84 1014.5
20260903231009 72 225 0.0 0.0 0.00 0.07 0.07 83 1014.6
20260903230012 74 225 0.0 0.0 0.00 0.07 0.07 80 1014.6
20260903225026 76 225 0.0 0.0 0.00 0.07 0.07 78 1014.8
20260903223012 76 225 0.0 0.9 0.00 0.07 0.07 76 1014.6
20260903221013 76 225 0.0 0.0 0.00 0.07 0.07 77 1014.7
20260903215111 76 214 0.9 2.6 0.00 0.07 0.07 74 1015.1
20260903214110 77 245 0.9 2.6 0.00 0.07 0.07 72 1014.8
20260903213209 78 175 1.7 5.2 0.00 0.07 0.07 72 1014.6
20260903212229 78 276 1.7 3.5 0.00 0.07 0.07 72 1014.8
20260903211309 77 247 0.0 1.7 0.00 0.07 0.07 71 1014.8
20260903210312 78 240 2.6 3.5 0.00 0.07 0.07 71 1014.8
20260903205212 80 178 2.6 3.5 0.00 0.07 0.07 71 1014.7
20260903204212 79 213 0.9 2.6 0.00 0.07 0.07 73 1014.7
20260903203211 79 157 0.0 0.0 0.00 0.07 0.07 74 1014.7
20260903201210 78 202 0.0 0.9 0.00 0.07 0.07 76 1014.9
20260903201147 78 190 0.0 0.9 0.00 0.07 0.07 76 1015.0
20260903200230 76 213 0.0 2.6 0.00 0.07 0.07 79 1015.0
20260903194230 75 183 1.7 2.6 0.00 0.07 0.07 82 1015.4
20260903193330 73 180 0.0 0.0 0.00 0.07 0.07 83 1015.5
20260903191431 74 157 0.9 0.9 0.00 0.07 0.07 83 1015.8
20260903191345 74 157 0.0 0.9 0.00 0.07 0.07 83 1015.8
20260903190433 74 202 0.0 0.0 0.00 0.07 0.07 83 1015.7
20260903184629 73 225 0.9 2.6 0.00 0.07 0.07 82 1015.9
20260903180529 69 247 0.0 0.0 0.00 0.07 0.07 88 1016.4
20260903180431 69 247 0.0 0.0 0.00 0.07 0.07 87 1016.5
20260903174530 68 337 0.0 0.0 0.00 0.07 0.07 89 1016.6
20260903173629 67 337 0.9 1.7 0.00 0.07 0.07 89 1016.8
20260903171648 66 337 0.0 0.0 0.00 0.07 0.07 88 1017.0
20260903170732 66 337 0.0 0.0 0.00 0.07 0.07 89 1017.0
20260903165732 66 337 0.0 0.0 0.00 0.07 0.07 89 1017.2
20260903163830 67 337 0.0 0.0 0.00 0.07 0.07 89 1017.0
20260903162830 66 337 0.0 0.0 0.00 0.07 0.07 89 1016.9
20260903161830 67 337 0.0 0.0 0.00 0.07 0.07 89 1016.9
20260903160830 68 337 0.0 0.9 0.00 0.07 0.07 89 1016.9
20260903155846 67 360 0.0 0.0 0.00 0.07 0.07 89 1017.0
20260903155730 67 360 0.0 0.0 0.00 0.07 0.07 88 1017.0
20260903154731 66 22 0.0 0.0 0.00 0.07 0.07 89 1017.0
20260903154631 66 22 0.0 0.0 0.00 0.07 0.07 89 1017.0
20260903153730 66 337 0.0 0.0 0.00 0.07 0.07 88 1017.1
20260903152730 66 337 0.0 0.0 0.00 0.07 0.07 86 1017.3
20260903151749 65 337 0.0 0.0 0.00 0.07 0.07 86 1017.6
20260903150830 65 337 0.0 0.0 0.00 0.07 0.07 85 1017.7
20260903145829 64 337 0.0 0.0 0.00 0.07 0.07 85 1017.7
20260903144830 63 337 0.0 0.0 0.00 0.07 0.07 85 1017.8
20260903143829 63 337 0.0 0.0 0.00 0.07 0.07 85 1017.9
20260903143730 63 337 0.0 0.0 0.00 0.07 0.07 85 1017.9
20260903142830 63 315 0.0 0.0 0.00 0.07 0.07 84 1017.9
20260903141831 62 157 0.0 0.0 0.00 0.07 0.07 85 1017.8
20260903140931 62 157 0.0 0.0 0.00 0.07 0.07 84 1018.0
20260903140832 62 157 0.0 0.0 0.00 0.07 0.07 85 1018.0
20260903135930 62 157 0.0 0.0 0.00 0.07 0.07 84 1018.1
20260903134931 62 157 0.0 0.0 0.00 0.07 0.07 84 1018.3
20260903133945 62 157 0.0 0.0 0.00 0.07 0.07 85 1018.2
20260903132129 60 157 0.0 0.0 0.00 0.07 0.07 85 1018.3
20260903131131 60 247 0.0 0.0 0.00 0.07 0.07 85 1018.1
20260903130130 59 247 0.0 0.0 0.00 0.07 0.07 85 1018.1
20260903125146 59 157 0.0 0.0 0.00 0.07 0.07 85 1018.4
20260903124130 59 157 0.0 0.0 0.00 0.07 0.07 85 1018.6
20260903124029 59 157 0.0 0.0 0.00 0.07 0.07 85 1018.4
20260903123031 59 157 0.0 0.0 0.00 0.07 0.07 84 1018.6
20260903122029 59 157 0.0 0.0 0.00 0.07 0.07 85 1018.6
20260903121031 59 157 0.0 0.0 0.00 0.07 0.07 85 1018.7
20260903120029 59 157 0.0 0.0 0.00 0.07 0.07 85 1018.9
20260903115930 59 157 0.0 0.0 0.00 0.07 0.07 86 1018.9
20260903114930 59 157 0.0 0.9 0.00 0.07 0.07 86 1019.0
20260903113930 59 157 0.0 0.0 0.00 0.07 0.07 85 1018.8
20260903112931 58 157 0.0 0.0 0.00 0.07 0.07 85 1018.9
20260903112030 58 157 0.0 0.0 0.00 0.07 0.07 86 1019.0
20260903111047 58 157 0.0 0.0 0.00 0.07 0.07 86 1019.1
20260903110129 58 157 0.0 0.0 0.00 0.07 0.07 85 1019.1
20260903110030 58 157 0.0 0.0 0.00 0.07 0.07 86 1019.1
20260903105031 58 157 0.0 0.0 0.00 0.07 0.07 85 1018.9
20260903104031 58 157 0.0 0.0 0.00 0.07 0.07 86 1018.9
20260903103031 58 157 0.0 0.0 0.00 0.07 0.07 86 1018.9
20260903102128 58 157 0.0 0.0 0.01 0.07 0.07 86 1018.8
20260903100030 58 157 0.0 0.0 0.01 0.07 0.07 86 1018.8
20260903094031 58 157 0.0 0.0 0.02 0.07 0.07 87 1018.8
20260903093030 58 157 0.0 0.0 0.02 0.07 0.07 87 1018.9
20260903092128 58 202 0.0 0.0 0.01 0.06 0.06 86 1019.1
20260903091131 58 157 0.0 0.0 0.01 0.06 0.06 87 1019.2
20260903090148 59 157 0.0 0.9 0.01 0.06 0.06 87 1019.2
20260903085130 59 157 0.0 0.0 0.01 0.06 0.06 87 1019.3
20260903085030 59 157 0.0 0.0 0.01 0.06 0.06 86 1019.4
20260903084030 59 157 0.0 0.0 0.00 0.05 0.05 87 1019.3
20260903083031 59 157 0.0 0.0 0.00 0.05 0.05 87 1019.5
20260903081932 59 157 0.0 0.0 0.00 0.05 0.05 86 1019.3
20260903080929 59 157 0.0 0.0 0.00 0.05 0.05 86 1019.4
20260903075930 59 157 0.0 0.0 0.00 0.05 0.05 88 1019.3
20260903074929 59 202 0.0 0.0 0.00 0.05 0.05 88 1019.6
20260903073030 59 202 0.0 0.0 0.01 0.05 0.05 88 1019.6
20260903072928 59 202 0.0 0.0 0.01 0.05 0.05 88 1019.7
20260903072830 59 202 0.0 0.0 0.01 0.05 0.05 88 1019.8
20260903071844 59 180 0.0 0.0 0.02 0.05 0.05 88 1019.8
20260903070930 59 180 0.0 0.9 0.03 0.05 0.05 88 1019.7
20260903064931 59 225 0.0 0.0 0.05 0.05 0.05 89 1019.5
20260903064846 59 225 0.0 0.0 0.05 0.05 0.05 88 1019.4
20260903063829 59 222 0.9 1.7 0.04 0.04 0.04 89 1019.8
20260903062831 60 180 0.0 0.0 0.04 0.04 0.03 89 1019.9
20260903060830 60 202 0.0 0.0 0.01 0.01 0.01 90 1021.0
20260903055929 60 202 0.0 0.0 0.00 0.00 0.00 90 1021.1
20260903054929 60 202 0.0 0.0 0.00 0.00 0.00 90 1021.1
20260903053931 60 202 0.0 0.0 0.00 0.00 0.00 90 1021.5
20260903053029 60 202 0.0 0.0 0.00 0.00 0.00 89 1021.6
20260903052031 60 202 0.0 0.0 0.00 0.00 0.00 90 1021.7
20260903051048 60 202 0.0 0.0 0.00 0.00 0.00 90 1021.6
20260903050047 60 202 0.0 0.0 0.00 0.00 0.00 90 1021.4
20260903045129 60 202 0.0 0.0 0.00 0.00 0.00 90 1021.3